SKW6468 KDFW-KCRP

Flight info

Callsign SKW6468
Flight time N/A
Altitude 35000
Route NELYN6 SAT SLENA/N0392F170 V163 CRP
Aircraft CRJ7/M-SDFGIRWY/S

Departure

Time N/A
Airport Dallas Fort Worth International Airport (KDFW)

Arrival

Time 2026-04-25 11:30
Airport Corpus Christi International Airport (KCRP)
Time Latitude Longitude Altitude Speed Heading
2026-04-25 11:08 29.36553 -98.39373 34798 ft 472 kts 178°
2026-04-25 11:08 29.33329 -98.38640 34798 ft 472 kts 178°
2026-04-25 11:09 29.26893 -98.37123 34757 ft 472 kts 177°
2026-04-25 11:09 29.20439 -98.35541 34760 ft 471 kts 177°
2026-04-25 11:10 29.14082 -98.34007 34772 ft 469 kts 177°
2026-04-25 11:10 29.07702 -98.32482 34412 ft 468 kts 177°
2026-04-25 11:10 29.04499 -98.31715 33562 ft 472 kts 177°
2026-04-25 11:11 29.01284 -98.30943 32712 ft 473 kts 176°
2026-04-25 11:11 28.98065 -98.30166 31868 ft 472 kts 176°
2026-04-25 11:11 28.94848 -98.29390 31040 ft 473 kts 175°
2026-04-25 11:11 28.91637 -98.28611 30382 ft 470 kts 175°
2026-04-25 11:12 28.88459 -98.27840 29797 ft 464 kts 175°
2026-04-25 11:12 28.85318 -98.27084 29143 ft 459 kts 175°
2026-04-25 11:12 28.82210 -98.26340 28508 ft 454 kts 175°
2026-04-25 11:12 28.79140 -98.25606 27893 ft 449 kts 175°
2026-04-25 11:13 28.76100 -98.24881 27301 ft 444 kts 175°
2026-04-25 11:13 28.73094 -98.24161 26720 ft 439 kts 175°
2026-04-25 11:13 28.70113 -98.23450 26122 ft 435 kts 174°
2026-04-25 11:13 28.67166 -98.22746 25562 ft 431 kts 174°
2026-04-25 11:14 28.64242 -98.22047 25033 ft 427 kts 174°
2026-04-25 11:14 28.61347 -98.21354 24519 ft 423 kts 174°
2026-04-25 11:14 28.58461 -98.20667 23560 ft 430 kts 173°
2026-04-25 11:14 28.55570 -98.19573 22570 ft 446 kts 155°
2026-04-25 11:15 28.52986 -98.17634 21939 ft 443 kts 147°
2026-04-25 11:15 28.50598 -98.15444 21333 ft 440 kts 139°
2026-04-25 11:15 28.48471 -98.12971 20756 ft 436 kts 134°
2026-04-25 11:15 28.46457 -98.10422 20204 ft 430 kts 134°
2026-04-25 11:16 28.42461 -98.05481 19130 ft 419 kts 136°
2026-04-25 11:16 28.40446 -98.03119 18601 ft 414 kts 136°
2026-04-25 11:16 28.38458 -98.00773 18099 ft 409 kts 136°
2026-04-25 11:17 28.36498 -97.98456 17537 ft 405 kts 136°
2026-04-25 11:17 28.34556 -97.96168 16967 ft 400 kts 135°
2026-04-25 11:17 28.32633 -97.93905 16340 ft 396 kts 136°
2026-04-25 11:17 28.30731 -97.91664 15811 ft 392 kts 135°
2026-04-25 11:18 28.28848 -97.89445 15268 ft 388 kts 135°
2026-04-25 11:18 28.26988 -97.87261 14659 ft 380 kts 135°
2026-04-25 11:18 28.25177 -97.85130 13963 ft 372 kts 135°
2026-04-25 11:18 28.23384 -97.83019 13233 ft 370 kts 135°
2026-04-25 11:19 28.21608 -97.80931 12713 ft 366 kts 136°
2026-04-25 11:19 28.19623 -97.79182 12148 ft 360 kts 153°
2026-04-25 11:19 28.17371 -97.78020 11838 ft 347 kts 160°
2026-04-25 11:19 28.15179 -97.77067 11513 ft 329 kts 161°
2026-04-25 11:20 28.13072 -97.76173 11089 ft 319 kts 161°
2026-04-25 11:20 28.11010 -97.75303 10575 ft 312 kts 165°
2026-04-25 11:20 28.08945 -97.75143 10179 ft 297 kts 195°
2026-04-25 11:20 28.07166 -97.76171 9825 ft 287 kts 227°
2026-04-25 11:21 28.06167 -97.78056 9471 ft 280 kts 258°
2026-04-25 11:21 28.06225 -97.80208 9107 ft 275 kts 291°
2026-04-25 11:21 28.07284 -97.81972 8743 ft 273 kts 321°
2026-04-25 11:21 28.08998 -97.82830 8397 ft 274 kts 353°
2026-04-25 11:22 28.10859 -97.82476 8040 ft 276 kts 26°
2026-04-25 11:22 28.11891 -97.81589 7807 ft 278 kts 48°
2026-04-25 11:22 28.12765 -97.78916 7380 ft 281 kts 91°
2026-04-25 11:22 28.12202 -97.76821 7021 ft 282 kts 124°
2026-04-25 11:23 28.10771 -97.75344 6692 ft 280 kts 149°
2026-04-25 11:23 28.09060 -97.74294 6351 ft 279 kts 154°
2026-04-25 11:23 28.07308 -97.73359 5981 ft 277 kts 156°
2026-04-25 11:23 28.05551 -97.72483 5595 ft 275 kts 157°
2026-04-25 11:24 28.03804 -97.71633 5204 ft 272 kts 157°
2026-04-25 11:24 28.02071 -97.70801 4822 ft 269 kts 158°
2026-04-25 11:24 28.00365 -97.69995 4438 ft 263 kts 158°
2026-04-25 11:24 27.98689 -97.69215 4043 ft 258 kts 158°
2026-04-25 11:25 27.97057 -97.68467 3661 ft 249 kts 159°
2026-04-25 11:25 27.95474 -97.67760 3284 ft 240 kts 159°
2026-04-25 11:25 27.93939 -97.67093 2902 ft 233 kts 160°
2026-04-25 11:25 27.92448 -97.66434 2516 ft 227 kts 159°
2026-04-25 11:26 27.91021 -97.65772 2282 ft 215 kts 159°
2026-04-25 11:26 27.89753 -97.65029 2162 ft 197 kts 140°
2026-04-25 11:26 27.88902 -97.63942 2147 ft 182 kts 133°
2026-04-25 11:26 27.88085 -97.62873 2120 ft 175 kts 134°
2026-04-25 11:27 27.87288 -97.61881 2127 ft 166 kts 136°
2026-04-25 11:27 27.86511 -97.60975 2120 ft 152 kts 139°
2026-04-25 11:27 27.85743 -97.60117 2130 ft 159 kts 140°
2026-04-25 11:27 27.85191 -97.59533 2027 ft 168 kts 140°
2026-04-25 11:28 27.84098 -97.58364 1700 ft 160 kts 139°
2026-04-25 11:28 27.83308 -97.57493 1487 ft 155 kts 138°
2026-04-25 11:28 27.82592 -97.56702 1299 ft 132 kts 138°
2026-04-25 11:28 27.81896 -97.55941 1121 ft 143 kts 138°
2026-04-25 11:29 27.81191 -97.55157 997 ft 142 kts 137°
2026-04-25 11:29 27.80491 -97.54370 831 ft 140 kts 137°
2026-04-25 11:29 27.79786 -97.53615 653 ft 142 kts 137°
2026-04-25 11:29 27.79071 -97.52825 464 ft 144 kts 137°
2026-04-25 11:30 27.78361 -97.52063 220 ft 139 kts 136°
2026-04-25 11:30 27.77673 -97.51312 53 ft 130 kts 136°
2026-04-25 11:30 27.77131 -97.50718 51 ft 92 kts 136°
2026-04-25 11:30 27.76787 -97.50342 47 ft 44 kts 136°
2026-04-25 11:31 27.76652 -97.50193 51 ft 18 kts 135°
2026-04-25 11:31 27.76626 -97.50116 51 ft 11 kts 57°
2026-04-25 11:31 27.76675 -97.50055 52 ft 10 kts 44°
2026-04-25 11:31 27.76722 -97.50021 52 ft 7 kts 353°
2026-04-25 11:32 27.76773 -97.50059 52 ft 12 kts 314°
2026-04-25 11:32 27.76851 -97.50144 48 ft 19 kts 316°
2026-04-25 11:32 27.76960 -97.50263 52 ft 23 kts 316°
2026-04-25 11:32 27.77063 -97.50375 52 ft 14 kts 316°
2026-04-25 11:33 27.77120 -97.50435 52 ft 10 kts 317°
2026-04-25 11:33 27.77176 -97.50490 52 ft 11 kts 321°
2026-04-25 11:33 27.77236 -97.50505 52 ft 9 kts 42°
2026-04-25 11:33 27.77260 -97.50439 52 ft 9 kts 78°
2026-04-25 11:34 27.77305 -97.50408 52 ft 8 kts 346°
2026-04-25 11:34 27.77353 -97.50405 52 ft 7 kts 56°
2026-04-25 11:34 27.77370 -97.50353 50 ft 8 kts 75°
2026-04-25 11:34 27.77379 -97.50303 52 ft 2 kts 81°
2026-04-25 11:35 27.77379 -97.50298 52 ft 0 kts 81°